iso_date,epoch_date,Year,Hour,Min,DOY,POS_DOY,Lat,Lon,BP,Ts,Ta,has_bp,has_ts,has_ta,BuoyID,Buoy_Type,Buoy_Owner,Logistics,Hemisphere
2018-09-17T00:56:09Z,1537145770,2018,0,56,260.039,260.039,57.75614,-152.51459,-999.00,-999.00,-999.0,no,no,no,300234066836600,IT,USIABP-AOML,USIABP,North
2018-09-18T21:17:16Z,1537305437,2018,21,18,261.887,261.887,72.96458,-148.60431,-999.00,-999.00,-999.0,no,no,no,300234066836600,IT,USIABP-AOML,USIABP,North
2018-09-18T22:00:28Z,1537308029,2018,22,0,261.917,261.917,72.95263,-148.94501,-999.00,-999.00,-999.0,no,no,no,300234066836600,IT,USIABP-AOML,USIABP,North
2018-09-18T22:59:31Z,1537311571,2018,23,0,261.958,261.958,72.95454,-148.96032,-999.00,-999.00,-999.0,no,no,no,300234066836600,IT,USIABP-AOML,USIABP,North
2018-09-19T00:00:00Z,1537315200,2018,0,0,262.0,262.0,72.956,-148.97484,-999.00,-999.00,-999.0,no,no,no,300234066836600,IT,USIABP-AOML,USIABP,North
2018-09-19T01:00:28Z,1537318829,2018,1,0,262.042,262.042,72.95677,-148.98871,-999.00,-999.00,-999.0,no,no,no,300234066836600,IT,USIABP-AOML,USIABP,North
2018-09-19T01:59:31Z,1537322371,2018,2,0,262.083,262.083,72.95669,-149.00271,-999.00,-999.00,-999.0,no,no,no,300234066836600,IT,USIABP-AOML,USIABP,North
2018-09-19T03:00:00Z,1537326000,2018,3,0,262.125,262.125,72.95596,-149.01732,-999.00,-999.00,-999.0,no,no,no,300234066836600,IT,USIABP-AOML,USIABP,North
2018-09-19T04:00:28Z,1537329629,2018,4,0,262.167,262.167,72.95499,-149.03289,-999.00,-999.00,-999.0,no,no,no,300234066836600,IT,USIABP-AOML,USIABP,North
2018-09-19T04:59:31Z,1537333171,2018,5,0,262.208,262.208,72.95383,-149.04856,-999.00,-999.00,-999.0,no,no,no,300234066836600,IT,USIABP-AOML,USIABP,North
2018-09-19T06:00:00Z,1537336800,2018,6,0,262.25,262.25,72.95258,-149.06636,-999.00,-999.00,-999.0,no,no,no,300234066836600,IT,USIABP-AOML,USIABP,North
2018-09-19T07:00:28Z,1537340429,2018,7,0,262.292,262.292,72.95178,-149.08542,-999.00,-999.00,-999.0,no,no,no,300234066836600,IT,USIABP-AOML,USIABP,North
2018-09-19T07:59:31Z,1537343971,2018,8,0,262.333,262.333,72.95186,-149.10529,-999.00,-999.00,-999.0,no,no,no,300234066836600,IT,USIABP-AOML,USIABP,North
2018-09-19T09:00:00Z,1537347600,2018,9,0,262.375,262.375,72.95284,-149.12449,-999.00,-999.00,-999.0,no,no,no,300234066836600,IT,USIABP-AOML,USIABP,North
2018-09-19T10:00:28Z,1537351229,2018,10,0,262.417,262.417,72.95433,-149.1421,-999.00,-999.00,-999.0,no,no,no,300234066836600,IT,USIABP-AOML,USIABP,North
2018-09-19T10:59:31Z,1537354771,2018,11,0,262.458,262.458,72.95554,-149.15648,-999.00,-999.00,-999.0,no,no,no,300234066836600,IT,USIABP-AOML,USIABP,North
2018-09-19T12:00:00Z,1537358400,2018,12,0,262.5,262.5,72.95594,-149.16747,-999.00,-999.00,-999.0,no,no,no,300234066836600,IT,USIABP-AOML,USIABP,North
2018-09-19T13:00:28Z,1537362029,2018,13,0,262.542,262.542,72.95512,-149.17625,-999.00,-999.00,-999.0,no,no,no,300234066836600,IT,USIABP-AOML,USIABP,North
2018-09-19T13:59:31Z,1537365571,2018,14,0,262.583,262.583,72.9531,-149.18448,-999.00,-999.00,-999.0,no,no,no,300234066836600,IT,USIABP-AOML,USIABP,North
2018-09-19T15:00:00Z,1537369200,2018,15,0,262.625,262.625,72.9509,-149.19602,-999.00,-999.00,-999.0,no,no,no,300234066836600,IT,USIABP-AOML,USIABP,North
2018-09-19T16:00:28Z,1537372829,2018,16,0,262.667,262.667,72.94876,-149.21158,-999.00,-999.00,-999.0,no,no,no,300234066836600,IT,USIABP-AOML,USIABP,North
2018-09-19T16:59:31Z,1537376371,2018,17,0,262.708,262.708,72.94689,-149.2301,-999.00,-999.00,-999.0,no,no,no,300234066836600,IT,USIABP-AOML,USIABP,North
2018-09-19T18:00:00Z,1537380000,2018,18,0,262.75,262.75,72.94556,-149.25064,-999.00,-999.00,-999.0,no,no,no,300234066836600,IT,USIABP-AOML,USIABP,North
2018-09-19T19:00:28Z,1537383629,2018,19,0,262.792,262.792,72.94522,-149.27261,-999.00,-999.00,-999.0,no,no,no,300234066836600,IT,USIABP-AOML,USIABP,North
2018-09-19T19:59:31Z,1537387171,2018,20,0,262.833,262.833,72.94628,-149.2951,-999.00,-999.00,-999.0,no,no,no,300234066836600,IT,USIABP-AOML,USIABP,North
2018-09-19T21:00:00Z,1537390800,2018,21,0,262.875,262.875,72.94831,-149.31541,-999.00,-999.00,-999.0,no,no,no,300234066836600,IT,USIABP-AOML,USIABP,North
2018-09-19T22:00:28Z,1537394429,2018,22,0,262.917,262.917,72.95109,-149.333,-999.00,-999.00,-999.0,no,no,no,300234066836600,IT,USIABP-AOML,USIABP,North
2018-09-19T22:59:31Z,1537397971,2018,23,0,262.958,262.958,72.95415,-149.34597,-999.00,-999.00,-999.0,no,no,no,300234066836600,IT,USIABP-AOML,USIABP,North
2018-09-20T00:00:00Z,1537401600,2018,0,0,263.0,263.0,72.95638,-149.3537,-999.00,-999.00,-999.0,no,no,no,300234066836600,IT,USIABP-AOML,USIABP,North
2018-09-20T01:00:28Z,1537405229,2018,1,0,263.042,263.042,72.95711,-149.35933,-999.00,-999.00,-999.0,no,no,no,300234066836600,IT,USIABP-AOML,USIABP,North
2018-09-20T01:59:31Z,1537408771,2018,2,0,263.083,263.083,72.95592,-149.3648,-999.00,-999.00,-999.0,no,no,no,300234066836600,IT,USIABP-AOML,USIABP,North
2018-09-20T03:00:00Z,1537412400,2018,3,0,263.125,263.125,72.95324,-149.37287,-999.00,-999.00,-999.0,no,no,no,300234066836600,IT,USIABP-AOML,USIABP,North
2018-09-20T06:00:00Z,1537423200,2018,6,0,263.25,263.25,72.94419,-149.42468,-999.00,-999.00,-999.0,no,no,no,300234066836600,IT,USIABP-AOML,USIABP,North
2018-09-20T12:00:00Z,1537444800,2018,12,0,263.5,263.5,72.95367,-149.52333,-999.00,-999.00,-999.0,no,no,no,300234066836600,IT,USIABP-AOML,USIABP,North
2018-09-20T18:00:00Z,1537466400,2018,18,0,263.75,263.75,72.93623,-149.54713,-999.00,-999.00,-999.0,no,no,no,300234066836600,IT,USIABP-AOML,USIABP,North
2018-09-21T00:00:00Z,1537488000,2018,0,0,264.0,264.0,72.94116,-149.65932,-999.00,-999.00,-999.0,no,no,no,300234066836600,IT,USIABP-AOML,USIABP,North
2018-09-21T06:00:00Z,1537509600,2018,6,0,264.25,264.25,72.91935,-149.62955,-999.00,-999.00,-999.0,no,no,no,300234066836600,IT,USIABP-AOML,USIABP,North
2018-09-21T12:00:00Z,1537531200,2018,12,0,264.5,264.5,72.90326,-149.76801,-999.00,-999.00,-999.0,no,no,no,300234066836600,IT,USIABP-AOML,USIABP,North
2018-09-21T18:00:00Z,1537552800,2018,18,0,264.75,264.75,72.88219,-149.80673,-999.00,-999.00,-999.0,no,no,no,300234066836600,IT,USIABP-AOML,USIABP,North
2018-09-22T00:00:00Z,1537574400,2018,0,0,265.0,265.0,72.8764,-150.02849,-999.00,-999.00,-999.0,no,no,no,300234066836600,IT,USIABP-AOML,USIABP,North
2018-09-22T06:00:00Z,1537596000,2018,6,0,265.25,265.25,72.87508,-150.12773,-999.00,-999.00,-999.0,no,no,no,300234066836600,IT,USIABP-AOML,USIABP,North
2018-09-22T12:00:00Z,1537617600,2018,12,0,265.5,265.5,72.88959,-150.29548,-999.00,-999.00,-999.0,no,no,no,300234066836600,IT,USIABP-AOML,USIABP,North
2018-09-22T18:00:00Z,1537639200,2018,18,0,265.75,265.75,72.88961,-150.35941,-999.00,-999.00,-999.0,no,no,no,300234066836600,IT,USIABP-AOML,USIABP,North
2018-09-23T00:00:00Z,1537660800,2018,0,0,266.0,266.0,72.89588,-150.51215,-999.00,-999.00,-999.0,no,no,no,300234066836600,IT,USIABP-AOML,USIABP,North
2018-09-23T06:00:00Z,1537682400,2018,6,0,266.25,266.25,72.90012,-150.56608,-999.00,-999.00,-999.0,no,no,no,300234066836600,IT,USIABP-AOML,USIABP,North
2018-09-23T12:00:00Z,1537704000,2018,12,0,266.5,266.5,72.9001,-150.72384,-999.00,-999.00,-999.0,no,no,no,300234066836600,IT,USIABP-AOML,USIABP,North
2018-09-23T18:00:00Z,1537725600,2018,18,0,266.75,266.75,72.91045,-150.79783,-999.00,-999.00,-999.0,no,no,no,300234066836600,IT,USIABP-AOML,USIABP,North
2018-09-24T00:00:00Z,1537747200,2018,0,0,267.0,267.0,72.9055,-150.93717,-999.00,-999.00,-999.0,no,no,no,300234066836600,IT,USIABP-AOML,USIABP,North
2018-09-24T06:00:00Z,1537768800,2018,6,0,267.25,267.25,72.90675,-151.02588,-999.00,-999.00,-999.0,no,no,no,300234066836600,IT,USIABP-AOML,USIABP,North
2018-09-24T12:00:00Z,1537790400,2018,12,0,267.5,267.5,72.90829,-151.14787,-999.00,-999.00,-999.0,no,no,no,300234066836600,IT,USIABP-AOML,USIABP,North
2018-09-24T18:00:00Z,1537812000,2018,18,0,267.75,267.75,72.89754,-151.22543,-999.00,-999.00,-999.0,no,no,no,300234066836600,IT,USIABP-AOML,USIABP,North
2018-09-25T00:00:00Z,1537833600,2018,0,0,268.0,268.0,72.89511,-151.39921,-999.00,-999.00,-999.0,no,no,no,300234066836600,IT,USIABP-AOML,USIABP,North
2018-09-25T06:00:00Z,1537855200,2018,6,0,268.25,268.25,72.86862,-151.53128,-999.00,-999.00,-999.0,no,no,no,300234066836600,IT,USIABP-AOML,USIABP,North
2018-09-25T12:00:00Z,1537876800,2018,12,0,268.5,268.5,72.87317,-151.8327,-999.00,-999.00,-999.0,no,no,no,300234066836600,IT,USIABP-AOML,USIABP,North
2018-09-25T18:00:00Z,1537898400,2018,18,0,268.75,268.75,72.87116,-151.87254,-999.00,-999.00,-999.0,no,no,no,300234066836600,IT,USIABP-AOML,USIABP,North
2018-09-26T00:00:00Z,1537920000,2018,0,0,269.0,269.0,72.86863,-152.05044,-999.00,-999.00,-999.0,no,no,no,300234066836600,IT,USIABP-AOML,USIABP,North
2018-09-26T06:00:00Z,1537941600,2018,6,0,269.25,269.25,72.85819,-152.03844,-999.00,-999.00,-999.0,no,no,no,300234066836600,IT,USIABP-AOML,USIABP,North
2018-09-26T12:00:00Z,1537963200,2018,12,0,269.5,269.5,72.83084,-152.14721,-999.00,-999.00,-999.0,no,no,no,300234066836600,IT,USIABP-AOML,USIABP,North
2018-09-26T18:00:00Z,1537984800,2018,18,0,269.75,269.75,72.80525,-152.17883,-999.00,-999.00,-999.0,no,no,no,300234066836600,IT,USIABP-AOML,USIABP,North
2018-09-27T00:00:00Z,1538006400,2018,0,0,270.0,270.0,72.76811,-152.2861,-999.00,-999.00,-999.0,no,no,no,300234066836600,IT,USIABP-AOML,USIABP,North
2018-09-27T06:00:00Z,1538028000,2018,6,0,270.25,270.25,72.72899,-152.34511,-999.00,-999.00,-999.0,no,no,no,300234066836600,IT,USIABP-AOML,USIABP,North
2018-09-27T12:00:00Z,1538049600,2018,12,0,270.5,270.5,72.67979,-152.42205,-999.00,-999.00,-999.0,no,no,no,300234066836600,IT,USIABP-AOML,USIABP,North
2018-09-27T18:00:00Z,1538071200,2018,18,0,270.75,270.75,72.62201,-152.46437,-999.00,-999.00,-999.0,no,no,no,300234066836600,IT,USIABP-AOML,USIABP,North
2018-09-28T00:00:00Z,1538092800,2018,0,0,271.0,271.0,72.56016,-152.54638,-999.00,-999.00,-999.0,no,no,no,300234066836600,IT,USIABP-AOML,USIABP,North
2018-09-28T06:00:00Z,1538114400,2018,6,0,271.25,271.25,72.51521,-152.64961,-999.00,-999.00,-999.0,no,no,no,300234066836600,IT,USIABP-AOML,USIABP,North
2018-09-28T12:00:00Z,1538136000,2018,12,0,271.5,271.5,72.48284,-152.77727,-999.00,-999.00,-999.0,no,no,no,300234066836600,IT,USIABP-AOML,USIABP,North
2018-09-28T18:00:00Z,1538157600,2018,18,0,271.75,271.75,72.45894,-152.90937,-999.00,-999.00,-999.0,no,no,no,300234066836600,IT,USIABP-AOML,USIABP,North
2018-09-29T00:00:00Z,1538179200,2018,0,0,272.0,272.0,72.4356,-153.03881,-999.00,-999.00,-999.0,no,no,no,300234066836600,IT,USIABP-AOML,USIABP,North
2018-09-29T06:00:00Z,1538200800,2018,6,0,272.25,272.25,72.41723,-153.18332,-999.00,-999.00,-999.0,no,no,no,300234066836600,IT,USIABP-AOML,USIABP,North
2018-09-29T12:00:00Z,1538222400,2018,12,0,272.5,272.5,72.40727,-153.3066,-999.00,-999.00,-999.0,no,no,no,300234066836600,IT,USIABP-AOML,USIABP,North
2018-09-29T18:00:00Z,1538244000,2018,18,0,272.75,272.75,72.42844,-153.45831,-999.00,-999.00,-999.0,no,no,no,300234066836600,IT,USIABP-AOML,USIABP,North
2018-09-30T00:00:00Z,1538265600,2018,0,0,273.0,273.0,72.46464,-153.5959,-999.00,-999.00,-999.0,no,no,no,300234066836600,IT,USIABP-AOML,USIABP,North
2018-09-30T06:00:00Z,1538287200,2018,6,0,273.25,273.25,72.50352,-153.73521,-999.00,-999.00,-999.0,no,no,no,300234066836600,IT,USIABP-AOML,USIABP,North
2018-09-30T12:00:00Z,1538308800,2018,12,0,273.5,273.5,72.51788,-153.89282,-999.00,-999.00,-999.0,no,no,no,300234066836600,IT,USIABP-AOML,USIABP,North
2018-09-30T18:00:00Z,1538330400,2018,18,0,273.75,273.75,72.54292,-154.04554,-999.00,-999.00,-999.0,no,no,no,300234066836600,IT,USIABP-AOML,USIABP,North
2018-10-01T00:00:00Z,1538352000,2018,0,0,274.0,274.0,72.55575,-154.18966,-999.00,-999.00,-999.0,no,no,no,300234066836600,IT,USIABP-AOML,USIABP,North
2018-10-01T06:00:00Z,1538373600,2018,6,0,274.25,274.25,72.5995,-154.31026,-999.00,-999.00,-999.0,no,no,no,300234066836600,IT,USIABP-AOML,USIABP,North
2018-10-01T12:00:00Z,1538395200,2018,12,0,274.5,274.5,72.62718,-154.44554,-999.00,-999.00,-999.0,no,no,no,300234066836600,IT,USIABP-AOML,USIABP,North
2018-10-01T18:00:00Z,1538416800,2018,18,0,274.75,274.75,72.67889,-154.51925,-999.00,-999.00,-999.0,no,no,no,300234066836600,IT,USIABP-AOML,USIABP,North
2018-10-02T00:00:00Z,1538438400,2018,0,0,275.0,275.0,72.73342,-154.60227,-999.00,-999.00,-999.0,no,no,no,300234066836600,IT,USIABP-AOML,USIABP,North
2018-10-02T06:00:00Z,1538460000,2018,6,0,275.25,275.25,72.8085,-154.64109,-999.00,-999.00,-999.0,no,no,no,300234066836600,IT,USIABP-AOML,USIABP,North
2018-10-02T12:00:00Z,1538481600,2018,12,0,275.5,275.5,72.85704,-154.64257,-999.00,-999.00,-999.0,no,no,no,300234066836600,IT,USIABP-AOML,USIABP,North
2018-10-02T18:00:00Z,1538503200,2018,18,0,275.75,275.75,72.91511,-154.70433,-999.00,-999.00,-999.0,no,no,no,300234066836600,IT,USIABP-AOML,USIABP,North
2018-10-03T00:00:00Z,1538524800,2018,0,0,276.0,276.0,72.99581,-154.7106,-999.00,-999.00,-999.0,no,no,no,300234066836600,IT,USIABP-AOML,USIABP,North
2018-10-03T06:00:00Z,1538546400,2018,6,0,276.25,276.25,73.05623,-154.83756,-999.00,-999.00,-999.0,no,no,no,300234066836600,IT,USIABP-AOML,USIABP,North
2018-10-03T12:00:00Z,1538568000,2018,12,0,276.5,276.5,73.12321,-154.92957,-999.00,-999.00,-999.0,no,no,no,300234066836600,IT,USIABP-AOML,USIABP,North
2018-10-03T18:00:00Z,1538589600,2018,18,0,276.75,276.75,73.1799,-155.13066,-999.00,-999.00,-999.0,no,no,no,300234066836600,IT,USIABP-AOML,USIABP,North
2018-10-04T00:00:00Z,1538611200,2018,0,0,277.0,277.0,73.21406,-155.3265,-999.00,-999.00,-999.0,no,no,no,300234066836600,IT,USIABP-AOML,USIABP,North
2018-10-04T06:00:00Z,1538632800,2018,6,0,277.25,277.25,73.23096,-155.69605,-999.00,-999.00,-999.0,no,no,no,300234066836600,IT,USIABP-AOML,USIABP,North
2018-10-04T12:00:00Z,1538654400,2018,12,0,277.5,277.5,73.29249,-156.04332,-999.00,-999.00,-999.0,no,no,no,300234066836600,IT,USIABP-AOML,USIABP,North
2018-10-04T18:00:00Z,1538676000,2018,18,0,277.75,277.75,73.33997,-156.35538,-999.00,-999.00,-999.0,no,no,no,300234066836600,IT,USIABP-AOML,USIABP,North
2018-10-05T00:00:00Z,1538697600,2018,0,0,278.0,278.0,73.41175,-156.76169,-999.00,-999.00,-999.0,no,no,no,300234066836600,IT,USIABP-AOML,USIABP,North
2018-10-05T06:00:00Z,1538719200,2018,6,0,278.25,278.25,73.4573,-157.07805,-999.00,-999.00,-999.0,no,no,no,300234066836600,IT,USIABP-AOML,USIABP,North
2018-10-05T12:00:00Z,1538740800,2018,12,0,278.5,278.5,73.50627,-157.39273,-999.00,-999.00,-999.0,no,no,no,300234066836600,IT,USIABP-AOML,USIABP,North
2018-10-05T18:00:00Z,1538762400,2018,18,0,278.75,278.75,73.56039,-157.71812,-999.00,-999.00,-999.0,no,no,no,300234066836600,IT,USIABP-AOML,USIABP,North
2018-10-06T00:00:00Z,1538784000,2018,0,0,279.0,279.0,73.60141,-158.00927,-999.00,-999.00,-999.0,no,no,no,300234066836600,IT,USIABP-AOML,USIABP,North
2018-10-06T06:00:00Z,1538805600,2018,6,0,279.25,279.25,73.68793,-158.18679,-999.00,-999.00,-999.0,no,no,no,300234066836600,IT,USIABP-AOML,USIABP,North
2018-10-06T12:00:00Z,1538827200,2018,12,0,279.5,279.5,73.79224,-158.26189,-999.00,-999.00,-999.0,no,no,no,300234066836600,IT,USIABP-AOML,USIABP,North
2018-10-06T18:00:00Z,1538848800,2018,18,0,279.75,279.75,73.86914,-158.33507,-999.00,-999.00,-999.0,no,no,no,300234066836600,IT,USIABP-AOML,USIABP,North
2018-10-07T00:00:00Z,1538870400,2018,0,0,280.0,280.0,73.9313,-158.35935,-999.00,-999.00,-999.0,no,no,no,300234066836600,IT,USIABP-AOML,USIABP,North
2018-10-07T06:00:00Z,1538892000,2018,6,0,280.25,280.25,73.98085,-158.49312,-999.00,-999.00,-999.0,no,no,no,300234066836600,IT,USIABP-AOML,USIABP,North
2018-10-07T12:00:00Z,1538913600,2018,12,0,280.5,280.5,74.08779,-158.78562,-999.00,-999.00,-999.0,no,no,no,300234066836600,IT,USIABP-AOML,USIABP,North
2018-10-07T18:00:00Z,1538935200,2018,18,0,280.75,280.75,74.16288,-159.01798,-999.00,-999.00,-999.0,no,no,no,300234066836600,IT,USIABP-AOML,USIABP,North
2018-10-08T00:00:00Z,1538956800,2018,0,0,281.0,281.0,74.17296,-159.1864,-999.00,-999.00,-999.0,no,no,no,300234066836600,IT,USIABP-AOML,USIABP,North
2018-10-08T06:00:00Z,1538978400,2018,6,0,281.25,281.25,74.15223,-159.26687,-999.00,-999.00,-999.0,no,no,no,300234066836600,IT,USIABP-AOML,USIABP,North
2018-10-08T12:00:00Z,1539000000,2018,12,0,281.5,281.5,74.13333,-159.27494,-999.00,-999.00,-999.0,no,no,no,300234066836600,IT,USIABP-AOML,USIABP,North
2018-10-08T18:00:00Z,1539021600,2018,18,0,281.75,281.75,74.11956,-159.4192,-999.00,-999.00,-999.0,no,no,no,300234066836600,IT,USIABP-AOML,USIABP,North
2018-10-09T00:00:00Z,1539043200,2018,0,0,282.0,282.0,74.11211,-159.55045,-999.00,-999.00,-999.0,no,no,no,300234066836600,IT,USIABP-AOML,USIABP,North
2018-10-09T06:00:00Z,1539064800,2018,6,0,282.25,282.25,74.09197,-159.75135,-999.00,-999.00,-999.0,no,no,no,300234066836600,IT,USIABP-AOML,USIABP,North
2018-10-09T12:00:00Z,1539086400,2018,12,0,282.5,282.5,74.05254,-159.98396,-999.00,-999.00,-999.0,no,no,no,300234066836600,IT,USIABP-AOML,USIABP,North
2018-10-09T18:00:00Z,1539108000,2018,18,0,282.75,282.75,74.01448,-160.27111,-999.00,-999.00,-999.0,no,no,no,300234066836600,IT,USIABP-AOML,USIABP,North
2018-10-10T00:00:00Z,1539129600,2018,0,0,283.0,283.0,73.95788,-160.53332,-999.00,-999.00,-999.0,no,no,no,300234066836600,IT,USIABP-AOML,USIABP,North
2018-10-10T06:00:00Z,1539151200,2018,6,0,283.25,283.25,73.91167,-160.61156,-999.00,-999.00,-999.0,no,no,no,300234066836600,IT,USIABP-AOML,USIABP,North
2018-10-10T12:00:00Z,1539172800,2018,12,0,283.5,283.5,73.90393,-160.70289,-999.00,-999.00,-999.0,no,no,no,300234066836600,IT,USIABP-AOML,USIABP,North
2018-10-10T18:00:00Z,1539194400,2018,18,0,283.75,283.75,73.92576,-160.94865,-999.00,-999.00,-999.0,no,no,no,300234066836600,IT,USIABP-AOML,USIABP,North
2018-10-11T00:00:00Z,1539216000,2018,0,0,284.0,284.0,73.96531,-161.27873,-999.00,-999.00,-999.0,no,no,no,300234066836600,IT,USIABP-AOML,USIABP,North
2018-10-11T06:00:00Z,1539237600,2018,6,0,284.25,284.25,74.04105,-161.62777,-999.00,-999.00,-999.0,no,no,no,300234066836600,IT,USIABP-AOML,USIABP,North
2018-10-11T12:00:00Z,1539259200,2018,12,0,284.5,284.5,74.18972,-161.92384,-999.00,-999.00,-999.0,no,no,no,300234066836600,IT,USIABP-AOML,USIABP,North
2018-10-11T18:00:00Z,1539280800,2018,18,0,284.75,284.75,74.38448,-162.24273,-999.00,-999.00,-999.0,no,no,no,300234066836600,IT,USIABP-AOML,USIABP,North
2018-10-12T00:00:00Z,1539302400,2018,0,0,285.0,285.0,74.56123,-162.55756,-999.00,-999.00,-999.0,no,no,no,300234066836600,IT,USIABP-AOML,USIABP,North
2018-10-12T06:00:00Z,1539324000,2018,6,0,285.25,285.25,74.67514,-162.67995,-999.00,-999.00,-999.0,no,no,no,300234066836600,IT,USIABP-AOML,USIABP,North
2018-10-12T12:00:00Z,1539345600,2018,12,0,285.5,285.5,74.76416,-162.63226,-999.00,-999.00,-999.0,no,no,no,300234066836600,IT,USIABP-AOML,USIABP,North
2018-10-12T18:00:00Z,1539367200,2018,18,0,285.75,285.75,74.86093,-162.58197,-999.00,-999.00,-999.0,no,no,no,300234066836600,IT,USIABP-AOML,USIABP,North
2018-10-13T00:00:00Z,1539388800,2018,0,0,286.0,286.0,74.9055,-162.63567,-999.00,-999.00,-999.0,no,no,no,300234066836600,IT,USIABP-AOML,USIABP,North
2018-10-13T06:00:00Z,1539410400,2018,6,0,286.25,286.25,74.93257,-163.05943,-999.00,-999.00,-999.0,no,no,no,300234066836600,IT,USIABP-AOML,USIABP,North
2018-10-13T12:00:00Z,1539432000,2018,12,0,286.5,286.5,74.92953,-163.58912,-999.00,-999.00,-999.0,no,no,no,300234066836600,IT,USIABP-AOML,USIABP,North
2018-10-13T18:00:00Z,1539453600,2018,18,0,286.75,286.75,74.98126,-164.01733,-999.00,-999.00,-999.0,no,no,no,300234066836600,IT,USIABP-AOML,USIABP,North
2018-10-14T00:00:00Z,1539475200,2018,0,0,287.0,287.0,74.99472,-164.16088,-999.00,-999.00,-999.0,no,no,no,300234066836600,IT,USIABP-AOML,USIABP,North
2018-10-14T06:00:00Z,1539496800,2018,6,0,287.25,287.25,74.99172,-164.23605,-999.00,-999.00,-999.0,no,no,no,300234066836600,IT,USIABP-AOML,USIABP,North
2018-10-14T12:00:00Z,1539518400,2018,12,0,287.5,287.5,75.04739,-164.33717,-999.00,-999.00,-999.0,no,no,no,300234066836600,IT,USIABP-AOML,USIABP,North
2018-10-14T18:00:00Z,1539540000,2018,18,0,287.75,287.75,75.1064,-164.47512,-999.00,-999.00,-999.0,no,no,no,300234066836600,IT,USIABP-AOML,USIABP,North
2018-10-15T00:00:00Z,1539561600,2018,0,0,288.0,288.0,75.16423,-164.63589,-999.00,-999.00,-999.0,no,no,no,300234066836600,IT,USIABP-AOML,USIABP,North
2018-10-15T06:00:00Z,1539583200,2018,6,0,288.25,288.25,75.20592,-164.783,-999.00,-999.00,-999.0,no,no,no,300234066836600,IT,USIABP-AOML,USIABP,North
2018-10-15T12:00:00Z,1539604800,2018,12,0,288.5,288.5,75.2573,-164.86764,-999.00,-999.00,-999.0,no,no,no,300234066836600,IT,USIABP-AOML,USIABP,North
2018-10-15T18:00:00Z,1539626400,2018,18,0,288.75,288.75,75.29932,-164.94458,-999.00,-999.00,-999.0,no,no,no,300234066836600,IT,USIABP-AOML,USIABP,North
2018-10-16T00:00:00Z,1539648000,2018,0,0,289.0,289.0,75.34618,-165.03574,-999.00,-999.00,-999.0,no,no,no,300234066836600,IT,USIABP-AOML,USIABP,North
2018-10-16T06:00:00Z,1539669600,2018,6,0,289.25,289.25,75.38529,-165.10317,-999.00,-999.00,-999.0,no,no,no,300234066836600,IT,USIABP-AOML,USIABP,North
2018-10-16T12:00:00Z,1539691200,2018,12,0,289.5,289.5,75.43714,-165.07949,-999.00,-999.00,-999.0,no,no,no,300234066836600,IT,USIABP-AOML,USIABP,North
2018-10-16T18:00:00Z,1539712800,2018,18,0,289.75,289.75,75.48522,-165.08186,-999.00,-999.00,-999.0,no,no,no,300234066836600,IT,USIABP-AOML,USIABP,North
2018-10-17T00:00:00Z,1539734400,2018,0,0,290.0,290.0,75.52279,-165.07553,-999.00,-999.00,-999.0,no,no,no,300234066836600,IT,USIABP-AOML,USIABP,North
2018-10-17T06:00:00Z,1539756000,2018,6,0,290.25,290.25,75.55249,-165.04923,-999.00,-999.00,-999.0,no,no,no,300234066836600,IT,USIABP-AOML,USIABP,North
2018-10-17T12:00:00Z,1539777600,2018,12,0,290.5,290.5,75.58156,-164.94324,-999.00,-999.00,-999.0,no,no,no,300234066836600,IT,USIABP-AOML,USIABP,North
2018-10-18T00:00:00Z,1539820800,2018,0,0,291.0,291.0,75.64737,-164.97287,-999.00,-999.00,-999.0,no,no,no,300234066836600,IT,USIABP-AOML,USIABP,North
2018-10-18T06:00:00Z,1539842400,2018,6,0,291.25,291.25,75.65777,-165.00278,-999.00,-999.00,-999.0,no,no,no,300234066836600,IT,USIABP-AOML,USIABP,North
2018-10-18T12:00:00Z,1539864000,2018,12,0,291.5,291.5,75.70619,-164.95741,-999.00,-999.00,-999.0,no,no,no,300234066836600,IT,USIABP-AOML,USIABP,North
2018-10-18T18:00:00Z,1539885600,2018,18,0,291.75,291.75,75.79526,-164.73406,-999.00,-999.00,-999.0,no,no,no,300234066836600,IT,USIABP-AOML,USIABP,North
2018-10-19T00:00:00Z,1539907200,2018,0,0,292.0,292.0,75.87061,-164.46797,-999.00,-999.00,-999.0,no,no,no,300234066836600,IT,USIABP-AOML,USIABP,North
2018-10-19T06:00:00Z,1539928800,2018,6,0,292.25,292.25,75.93993,-164.26669,-999.00,-999.00,-999.0,no,no,no,300234066836600,IT,USIABP-AOML,USIABP,North
2018-10-19T12:00:00Z,1539950400,2018,12,0,292.5,292.5,75.98471,-164.18771,-999.00,-999.00,-999.0,no,no,no,300234066836600,IT,USIABP-AOML,USIABP,North
2018-10-19T18:00:00Z,1539972000,2018,18,0,292.75,292.75,76.00627,-164.10253,-999.00,-999.00,-999.0,no,no,no,300234066836600,IT,USIABP-AOML,USIABP,North
2018-10-20T00:00:00Z,1539993600,2018,0,0,293.0,293.0,76.01758,-164.13243,-999.00,-999.00,-999.0,no,no,no,300234066836600,IT,USIABP-AOML,USIABP,North
2018-10-20T06:00:00Z,1540015200,2018,6,0,293.25,293.25,76.02948,-164.20013,-999.00,-999.00,-999.0,no,no,no,300234066836600,IT,USIABP-AOML,USIABP,North
2018-10-20T12:00:00Z,1540036800,2018,12,0,293.5,293.5,76.04299,-164.24627,-999.00,-999.00,-999.0,no,no,no,300234066836600,IT,USIABP-AOML,USIABP,North
2018-10-20T18:00:00Z,1540058400,2018,18,0,293.75,293.75,76.10111,-164.206,-999.00,-999.00,-999.0,no,no,no,300234066836600,IT,USIABP-AOML,USIABP,North
2018-10-21T00:00:00Z,1540080000,2018,0,0,294.0,294.0,76.16412,-164.04266,-999.00,-999.00,-999.0,no,no,no,300234066836600,IT,USIABP-AOML,USIABP,North
2018-10-21T06:00:00Z,1540101600,2018,6,0,294.25,294.25,76.26291,-163.80539,-999.00,-999.00,-999.0,no,no,no,300234066836600,IT,USIABP-AOML,USIABP,North
2018-10-21T12:00:00Z,1540123200,2018,12,0,294.5,294.5,76.37495,-163.533,-999.00,-999.00,-999.0,no,no,no,300234066836600,IT,USIABP-AOML,USIABP,North
2018-10-21T18:00:00Z,1540144800,2018,18,0,294.75,294.75,76.45246,-163.23761,-999.00,-999.00,-999.0,no,no,no,300234066836600,IT,USIABP-AOML,USIABP,North